Time,TemperatureF,DewpointF,PressureIn,WindDirection,WindDirectionDegrees,WindSpeedMPH,WindSpeedGustMPH,Humidity,HourlyPrecipIn,Conditions,Clouds,dailyrainin,SoftwareType,DateUTC
2013-04-23 00:02:00,44.0,39.0,-100.00,South,180,2.0,3.0,82,-99.99,,,-99.99,,2013-04-23 05:02:00,
2013-04-23 00:12:00,44.0,39.0,-100.00,South,180,2.0,3.0,82,-99.99,,,-99.99,,2013-04-23 05:12:00,
2013-04-23 01:42:00,43.0,38.0,-100.00,WNW,285,0.0,6.0,83,-99.99,,,-99.99,,2013-04-23 06:42:00,
2013-04-23 01:52:00,43.0,38.0,-100.00,WNW,285,0.0,6.0,83,-99.99,,,-99.99,,2013-04-23 06:52:00,
2013-04-23 02:02:00,43.0,38.0,-100.00,WNW,285,0.0,6.0,83,-99.99,,,-99.99,,2013-04-23 07:02:00,
2013-04-23 02:11:00,43.0,38.0,-100.00,WNW,285,0.0,6.0,83,-99.99,,,-99.99,,2013-04-23 07:11:00,
2013-04-23 02:21:00,43.0,38.0,-100.00,WNW,285,0.0,6.0,83,-99.99,,,-99.99,,2013-04-23 07:21:00,
2013-04-23 03:42:00,42.0,38.0,-100.00,North,0,0.0,1.0,87,-99.99,,,-99.99,,2013-04-23 08:42:00,
2013-04-23 03:52:00,42.0,38.0,-100.00,North,0,0.0,1.0,87,-99.99,,,-99.99,,2013-04-23 08:52:00,
2013-04-23 04:01:00,42.0,38.0,-100.00,North,0,0.0,1.0,87,-99.99,,,-99.99,,2013-04-23 09:01:00,
2013-04-23 04:11:00,42.0,38.0,-100.00,North,0,0.0,1.0,87,-99.99,,,-99.99,,2013-04-23 09:11:00,
2013-04-23 04:21:00,42.0,38.0,-100.00,North,0,0.0,1.0,87,-99.99,,,-99.99,,2013-04-23 09:21:00,
2013-04-23 04:22:00,46.0,43.0,-100.00,NE,45,4.0,9.0,87,-99.99,,,-99.99,,2013-04-23 09:22:00,
2013-04-23 04:43:00,46.0,43.0,-100.00,NE,45,4.0,9.0,87,-99.99,,,-99.99,,2013-04-23 09:43:00,
2013-04-23 04:53:00,46.0,43.0,-100.00,NE,45,4.0,9.0,87,-99.99,,,-99.99,,2013-04-23 09:53:00,
2013-04-23 05:02:00,46.0,43.0,-100.00,NE,45,4.0,9.0,87,-99.99,,,-99.99,,2013-04-23 10:02:00,
2013-04-23 05:13:00,46.0,43.0,-100.00,NE,45,4.0,9.0,87,-99.99,,,-99.99,,2013-04-23 10:13:00,
2013-04-23 05:43:00,40.0,36.0,-100.00,SE,135,4.0,12.0,88,-99.99,,,-99.99,,2013-04-23 10:43:00,
2013-04-23 05:52:00,40.0,36.0,-100.00,SE,135,4.0,12.0,88,-99.99,,,-99.99,,2013-04-23 10:52:00,
2013-04-23 06:03:00,40.0,36.0,-100.00,SE,135,4.0,12.0,88,-99.99,,,-99.99,,2013-04-23 11:03:00,
2013-04-23 06:12:00,40.0,36.0,-100.00,SE,135,4.0,12.0,88,-99.99,,,-99.99,,2013-04-23 11:12:00,
2013-04-23 06:21:00,40.0,36.0,-100.00,SE,135,4.0,12.0,88,-99.99,,,-99.99,,2013-04-23 11:21:00,
2013-04-23 06:43:00,36.0,33.0,-100.00,ESE,105,7.0,14.0,88,-99.99,,,-99.99,,2013-04-23 11:43:00,
2013-04-23 06:53:00,36.0,33.0,-100.00,ESE,105,7.0,14.0,88,-99.99,,,-99.99,,2013-04-23 11:53:00,
2013-04-23 07:02:00,36.0,33.0,-100.00,ESE,105,7.0,14.0,88,-99.99,,,-99.99,,2013-04-23 12:02:00,
2013-04-23 07:12:00,36.0,33.0,-100.00,ESE,105,7.0,14.0,88,-99.99,,,-99.99,,2013-04-23 12:12:00,
2013-04-23 07:20:00,35.0,31.0,-100.00,SE,145,4.0,16.0,88,-99.99,,,-99.99,,2013-04-23 12:20:00,
2013-04-23 07:22:00,36.0,33.0,-100.00,ESE,105,7.0,14.0,88,-99.99,,,-99.99,,2013-04-23 12:22:00,
2013-04-23 07:42:00,35.0,31.0,-100.00,SE,145,4.0,16.0,88,-99.99,,,-99.99,,2013-04-23 12:42:00,
2013-04-23 07:52:00,35.0,31.0,-100.00,SE,145,4.0,16.0,88,-99.99,,,-99.99,,2013-04-23 12:52:00,
2013-04-23 08:01:00,35.0,31.0,-100.00,SE,145,4.0,16.0,88,-99.99,,,-99.99,,2013-04-23 13:01:00,
2013-04-23 08:11:00,35.0,31.0,-100.00,SE,145,4.0,16.0,88,-99.99,,,-99.99,,2013-04-23 13:11:00,
2013-04-23 08:42:00,34.0,31.0,-100.00,South,180,6.0,14.0,88,-99.99,,,-99.99,,2013-04-23 13:42:00,
2013-04-23 08:52:00,35.0,31.0,-100.00,SSE,165,6.0,14.0,88,-99.99,,,-99.99,,2013-04-23 13:52:00,
2013-04-23 09:02:00,35.0,31.0,-100.00,SSE,165,6.0,14.0,88,-99.99,,,-99.99,,2013-04-23 14:02:00,
2013-04-23 09:11:00,35.0,31.0,-100.00,SSE,165,6.0,14.0,88,-99.99,,,-99.99,,2013-04-23 14:11:00,
2013-04-23 09:22:00,35.0,31.0,-100.00,SSE,165,6.0,14.0,88,-99.99,,,-99.99,,2013-04-23 14:22:00,
2013-04-23 09:42:00,35.0,31.0,-100.00,SW,215,6.0,16.0,82,-99.99,,,-99.99,,2013-04-23 14:42:00,
2013-04-23 09:52:00,35.0,31.0,-100.00,SW,215,6.0,16.0,82,-99.99,,,-99.99,,2013-04-23 14:52:00,
2013-04-23 10:01:00,35.0,31.0,-100.00,SW,215,6.0,16.0,82,-99.99,,,-99.99,,2013-04-23 15:01:00,
2013-04-23 10:12:00,35.0,31.0,-100.00,SW,215,6.0,16.0,82,-99.99,,,-99.99,,2013-04-23 15:12:00,
2013-04-23 10:21:00,35.0,31.0,-100.00,SW,215,6.0,16.0,82,-99.99,,,-99.99,,2013-04-23 15:21:00,
2013-04-23 10:43:00,36.0,27.0,-100.00,South,185,7.0,16.0,68,-99.99,,,-99.99,,2013-04-23 15:43:00,
2013-04-23 10:53:00,36.0,27.0,-100.00,South,185,7.0,16.0,68,-99.99,,,-99.99,,2013-04-23 15:53:00,
2013-04-23 11:03:00,36.0,27.0,-100.00,South,185,7.0,16.0,68,-99.99,,,-99.99,,2013-04-23 16:03:00,
2013-04-23 11:12:00,36.0,27.0,-100.00,South,185,7.0,16.0,68,-99.99,,,-99.99,,2013-04-23 16:12:00,
2013-04-23 11:21:00,38.0,26.0,-100.00,South,170,7.0,14.0,62,-99.99,,,-99.99,,2013-04-23 16:21:00,
2013-04-23 11:23:00,36.0,27.0,-100.00,South,185,7.0,16.0,68,-99.99,,,-99.99,,2013-04-23 16:23:00,
2013-04-23 11:43:00,38.0,26.0,-100.00,South,170,7.0,14.0,62,-99.99,,,-99.99,,2013-04-23 16:43:00,
2013-04-23 11:53:00,38.0,26.0,-100.00,South,170,7.0,14.0,62,-99.99,,,-99.99,,2013-04-23 16:53:00,
2013-04-23 12:02:00,38.0,26.0,-100.00,South,170,7.0,14.0,62,-99.99,,,-99.99,,2013-04-23 17:02:00,
2013-04-23 12:11:00,38.0,26.0,-100.00,South,170,7.0,14.0,62,-99.99,,,-99.99,,2013-04-23 17:11:00,
2013-04-23 12:43:00,40.0,22.0,-100.00,South,185,10.0,17.0,49,-99.99,,,-99.99,,2013-04-23 17:43:00,
2013-04-23 12:53:00,40.0,22.0,-100.00,South,185,10.0,17.0,49,-99.99,,,-99.99,,2013-04-23 17:53:00,
2013-04-23 13:02:00,40.0,22.0,-100.00,South,185,10.0,17.0,49,-99.99,,,-99.99,,2013-04-23 18:02:00,
2013-04-23 13:12:00,40.0,22.0,-100.00,South,185,10.0,17.0,49,-99.99,,,-99.99,,2013-04-23 18:12:00,
2013-04-23 13:21:00,40.0,21.0,-100.00,SSW,200,6.0,14.0,47,-99.99,,,-99.99,,2013-04-23 18:21:00,
2013-04-23 13:22:00,40.0,22.0,-100.00,South,185,10.0,17.0,49,-99.99,,,-99.99,,2013-04-23 18:22:00,
2013-04-23 13:42:00,40.0,21.0,-100.00,SSW,200,6.0,14.0,47,-99.99,,,-99.99,,2013-04-23 18:42:00,
2013-04-23 13:52:00,40.0,21.0,-100.00,SSW,200,6.0,14.0,47,-99.99,,,-99.99,,2013-04-23 18:52:00,
2013-04-23 14:02:00,40.0,21.0,-100.00,SSW,200,6.0,14.0,47,-99.99,,,-99.99,,2013-04-23 19:02:00,
2013-04-23 14:11:00,40.0,21.0,-100.00,SSW,200,6.0,14.0,47,-99.99,,,-99.99,,2013-04-23 19:11:00,
2013-04-23 15:21:00,39.0,21.0,-100.00,South,180,6.0,16.0,48,-99.99,,,-99.99,,2013-04-23 20:21:00,
2013-04-23 15:42:00,39.0,21.0,-100.00,South,180,6.0,16.0,48,-99.99,,,-99.99,,2013-04-23 20:42:00,
2013-04-23 15:52:00,39.0,21.0,-100.00,South,180,6.0,16.0,48,-99.99,,,-99.99,,2013-04-23 20:52:00,
2013-04-23 16:02:00,39.0,21.0,-100.00,South,180,6.0,16.0,48,-99.99,,,-99.99,,2013-04-23 21:02:00,
2013-04-23 16:12:00,39.0,21.0,-100.00,South,180,6.0,16.0,48,-99.99,,,-99.99,,2013-04-23 21:12:00,
2013-04-23 16:43:00,39.0,19.0,-100.00,South,180,9.0,18.0,45,-99.99,,,-99.99,,2013-04-23 21:43:00,
2013-04-23 16:52:00,39.0,19.0,-100.00,South,180,9.0,18.0,45,-99.99,,,-99.99,,2013-04-23 21:52:00,
2013-04-23 17:03:00,39.0,19.0,-100.00,South,180,9.0,18.0,45,-99.99,,,-99.99,,2013-04-23 22:03:00,
2013-04-23 17:12:00,39.0,19.0,-100.00,South,180,9.0,18.0,45,-99.99,,,-99.99,,2013-04-23 22:12:00,
2013-04-23 17:22:00,39.0,19.0,-100.00,South,180,9.0,18.0,45,-99.99,,,-99.99,,2013-04-23 22:22:00,
2013-04-23 18:42:00,38.0,18.0,-100.00,SSW,200,6.0,15.0,45,-99.99,,,-99.99,,2013-04-23 23:42:00,
2013-04-23 18:52:00,38.0,18.0,-100.00,SSW,200,6.0,15.0,45,-99.99,,,-99.99,,2013-04-23 23:52:00,
2013-04-23 19:01:00,38.0,18.0,-100.00,SSW,200,6.0,15.0,45,-99.99,,,-99.99,,2013-04-24 00:01:00,
2013-04-23 19:11:00,38.0,18.0,-100.00,SSW,200,6.0,15.0,45,-99.99,,,-99.99,,2013-04-24 00:11:00,
2013-04-23 19:21:00,38.0,18.0,-100.00,SSW,200,6.0,15.0,45,-99.99,,,-99.99,,2013-04-24 00:21:00,
2013-04-23 19:42:00,37.0,18.0,-100.00,SW,215,9.0,16.0,46,-99.99,,,-99.99,,2013-04-24 00:42:00,
2013-04-23 19:52:00,37.0,18.0,-100.00,SW,215,9.0,16.0,46,-99.99,,,-99.99,,2013-04-24 00:52:00,
2013-04-23 20:01:00,37.0,18.0,-100.00,SW,215,9.0,16.0,46,-99.99,,,-99.99,,2013-04-24 01:01:00,
2013-04-23 20:11:00,37.0,18.0,-100.00,SW,215,9.0,16.0,46,-99.99,,,-99.99,,2013-04-24 01:11:00,
2013-04-23 20:21:00,37.0,18.0,-100.00,SW,215,9.0,16.0,46,-99.99,,,-99.99,,2013-04-24 01:21:00,
2013-04-23 20:23:00,36.0,18.0,-100.00,South,180,6.0,13.0,48,-99.99,,,-99.99,,2013-04-24 01:23:00,
2013-04-23 20:43:00,36.0,18.0,-100.00,South,180,6.0,13.0,48,-99.99,,,-99.99,,2013-04-24 01:43:00,
2013-04-23 20:52:00,36.0,18.0,-100.00,South,180,6.0,13.0,48,-99.99,,,-99.99,,2013-04-24 01:52:00,
2013-04-23 21:02:00,36.0,18.0,-100.00,South,180,6.0,13.0,48,-99.99,,,-99.99,,2013-04-24 02:02:00,
2013-04-23 21:17:00,36.0,18.0,-100.00,South,180,6.0,13.0,48,-99.99,,,-99.99,,2013-04-24 02:17:00,
2013-04-23 22:20:00,33.0,18.0,-100.00,SW,225,1.0,3.0,53,-99.99,,,-99.99,,2013-04-24 03:20:00,
2013-04-23 23:01:00,33.0,18.0,-100.00,SW,225,1.0,3.0,53,-99.99,,,-99.99,,2013-04-24 04:01:00,
2013-04-23 23:03:00,33.0,18.0,-100.00,SW,225,1.0,3.0,53,-99.99,,,-99.99,,2013-04-24 04:03:00,
2013-04-23 23:12:00,33.0,18.0,-100.00,SW,225,1.0,3.0,53,-99.99,,,-99.99,,2013-04-24 04:12:00,
2013-04-23 23:43:00,29.0,16.0,-100.00,East,85,0.0,2.0,60,-99.99,,,-99.99,,2013-04-24 04:43:00,
2013-04-23 23:53:00,29.0,16.0,-100.00,East,85,0.0,2.0,60,-99.99,,,-99.99,,2013-04-24 04:53:00,